Temp
14 14 13 13 12 11 10 9 9 9 8 9 8 9 9 8 8 8 8 8 7 6 7 7 7 7 7 9 9 9 9 8 8 9 9 10 10 10 10 9 9 10 9
13 13 12 12 11 11 10 9 9 9 9 8 8 9 10 10 9 8 8 7 7 6 7 6 7 7 8 9 9 9 9 9 8 9 9 9 10 10 10 9 9 9 9
12 13 12 11 11 11 10 9 9 9 9 9 8 8 8 8 9 8 8 8 8 8 8 7 7 7 8 8 8 8 9 8 8 9 9 9 9 9 10 10 9 9 9
12 12 12 12 11 11 10 9 9 9 9 9 9 9 9 8 8 8 8 8 8 8 7 7 8 8 8 8 8 8 8 8 8 8 9 9 9 9 8 8 8 9 9
10 10 11 11 10 10 10 9 9 9 9 9 9 9 9 8 8 8 8 8 8 8 8 8 8 8 8 8 8 8 8 8 8 8 7 7 7 7 7 7 7 9 9
9 10 10 10 9 9 9 9 9 9 9 9 9 9 9 9 9 9 9 9 9 8 8 8 9 9 9 8 8 8 8 8 8 8 7 7 7 7 7 7 7 6 6
8 9 9 9 8 8 9 9 9 9 9 9 9 9 9 9 9 9 9 8 8 8 8 8 9 9 9 9 9 9 9 8 8 8 7 7 7 7 7 7 6 6 7
8 8 8 8 8 8 8 8 8 8 8 9 9 9 9 8 9 9 9 9 8 8 8 9 8 8 8 8 8 8 8 9 8 8 7 7 6 6 6 6 6 6 6
7 6 7 7 7 8 8 8 8 8 8 8 8 8 8 8 8 9 9 9 8 9 8 8 7 8 8 8 7 6 7 7 6 7 6 6 5 6 6 6 6 6 5
5 5 6 6 6 6 6 7 7 7 8 8 7 8 8 7 8 8 8 8 8 7 7 7 7 7 7 7 7 6 6 5 5 5 5 5 4 4 4 4 5 4 3
2 3 4 5 6 6 5 5 5 5 6 6 6 6 6 6 6 7 8 8 7 7 6 6 5 6 6 5 5 5 5 5 5 4 3 3 2 1 -0 -0 -0 0 -0
2 3 4 5 5 4 4 5 5 4 4 4 4 4 4 4 4 4 5 5 4 4 4 4 3 2 2 3 3 3 3 3 2 1 -1 -2 -3 -3 -4 -4 -4 -5 -5
0 1 2 3 3 4 4 4 4 3 3 3 2 2 2 1 1 2 2 2 2 1 0 -1 -1 -2 -1 -1 -2 -2 -2 -2 -2 -3 -4 -5 -6 -6 -7 -6 -6 -7 -7
-0 0 -0 1 2 2 3 3 3 3 2 2 0 -1 -2 -2 -3 -3 -3 -2 -3 -3 -4 -4 -4 -4 -4 -4 -4 -4 -5 -5 -5 -5 -6 -7 -7 -7 -7 -7 -7 -7 -7
-2 -2 -1 -1 -1 -1 0 0 0 -1 -1 -2 -4 -5 -4 -4 -5 -5 -4 -4 -4 -4 -4 -5 -5 -5 -5 -6 -6 -6 -7 -7 -7 -8 -8 -8 -8 -8 -8 -8 -8 -8 -8
-3 -3 -3 -3 -3 -3 -4 -5 -5 -6 -6 -6 -5 -4 -5 -6 -6 -5 -5 -5 -6 -6 -5 -5 -6 -6 -7 -7 -7 -8 -8 -8 -8 -9 -9 -9 -9 -9 -9 -9 -10 -10 -10
-4 -4 -4 -4 -4 -5 -5 -5 -5 -6 -5 -5 -6 -6 -6 -6 -6 -6 -6 -6 -6 -6 -5 -6 -7 -8 -8 -8 -8 -8 -8 -9 -9 -9 -9 -10 -10 -11 -11 -11 -11 -11 -11
-6 -5 -5 -5 -5 -6 -6 -6 -6 -6 -6 -7 -7 -7 -7 -7 -7 -7 -7 -7 -6 -6 -7 -7 -8 -8 -9 -9 -9 -10 -10 -10 -10 -11 -11 -11 -11 -12 -12 -12 -13 -13 -14
-7 -7 -7 -7 -7 -7 -7 -7 -7 -7 -7 -8 -8 -8 -8 -8 -8 -8 -8 -7 -7 -8 -9 -9 -10 -10 -11 -11 -11 -11 -11 -11 -11 -12 -12 -12 -13 -13 -13 -13 -14 -14 -14
-8 -8 -8 -8 -9 -8 -8 -8 -8 -8 -8 -8 -9 -9 -9 -9 -9 -8 -8 -9 -9 -10 -11 -11 -11 -12 -12 -12 -12 -13 -13 -13 -13 -13 -13 -13 -14 -14 -14 -14 -15 -15 -15
-9 -9 -9 -9 -9 -9 -9 -9 -9 -9 -9 -10 -10 -11 -11 -10 -10 -10 -11 -11 -12 -12 -13 -13 -13 -13 -13 -13 -14 -14 -13 -13 -14 -14 -14 -15 -15 -15 -15 -15 -16 -16 -16
-10 -10 -10 -10 -10 -10 -10 -11 -11 -11 -11 -11 -12 -12 -12 -12 -12 -12 -13 -13 -13 -13 -13 -14 -14 -14 -14 -14 -14 -14 -15 -15 -15 -15 -15 -16 -16 -16 -16 -16 -16 -16 -16
-11 -11 -11 -11 -11 -11 -12 -12 -12 -12 -13 -13 -13 -13 -14 -13 -14 -14 -14 -14 -15 -15 -15 -15 -15 -15 -15 -15 -15 -15 -16 -16 -16 -16 -16 -16 -17 -17 -17 -17 -17 -17 -17
-12 -12 -12 -12 -13 -13 -13 -13 -13 -14 -14 -14 -14 -15 -15 -15 -15 -15 -15 -16 -16 -16 -16 -16 -16 -16 -16 -16 -16 -16 -16 -17 -17 -17 -17 -17 -17 -17 -17 -18 -18 -18 -18
-13 -13 -13 -14 -14 -14 -14 -15 -15 -15 -15 -16 -16 -16 -16 -16 -16 -16 -17 -17 -17 -17 -17 -17 -17 -17 -17 -17 -17 -17 -17 -18 -17 -17 -17 -18 -18 -18 -18 -18 -18 -18 -18
-14 -15 -15 -15 -15 -15 -16 -16 -16 -16 -17 -17 -17 -17 -17 -17 -17 -17 -17 -17 -18 -18 -18 -18 -18 -18 -18 -18 -18 -17 -18 -18 -18 -18 -18 -18 -19 -19 -19 -19 -19 -19 -19
Height
1407 1417 1423 1427 1432 1436 1439 1442 1446 1448 1451 1455 1458 1460 1463 1466 1469 1472 1474 1477 1480 1485 1492 1496 1501 1506 1509 1514 1518 1520 1522 1525 1524 1526 1527 1529 1530 1530 1531 1531 1532 1532 1530
1405 1415 1421 1424 1429 1433 1436 1439 1443 1446 1449 1452 1455 1459 1462 1465 1467 1470 1472 1475 1479 1482 1487 1491 1495 1501 1505 1508 1511 1513 1515 1518 1520 1518 1520 1520 1520 1521 1522 1522 1521 1521 1521
1405 1412 1418 1422 1425 1430 1433 1437 1439 1443 1446 1449 1453 1456 1459 1462 1465 1468 1470 1474 1477 1480 1484 1488 1493 1496 1498 1499 1502 1504 1506 1509 1510 1511 1509 1511 1510 1511 1511 1510 1510 1510 1510
1405 1411 1415 1420 1423 1427 1431 1434 1437 1439 1442 1445 1448 1452 1454 1458 1461 1464 1467 1470 1474 1477 1481 1484 1486 1487 1489 1491 1494 1495 1499 1499 1501 1501 1500 1500 1502 1501 1500 1498 1498 1497 1496
1406 1410 1413 1418 1422 1425 1428 1431 1434 1436 1439 1442 1444 1447 1450 1453 1455 1458 1461 1465 1468 1470 1474 1476 1477 1478 1480 1483 1485 1486 1489 1491 1492 1491 1490 1491 1489 1491 1489 1488 1486 1484 1483
1406 1409 1413 1417 1420 1423 1426 1428 1431 1433 1435 1437 1439 1441 1443 1445 1448 1452 1455 1457 1460 1463 1465 1466 1467 1468 1470 1473 1475 1477 1480 1481 1480 1480 1480 1478 1476 1478 1479 1477 1475 1473 1468
1405 1408 1411 1414 1417 1418 1422 1425 1428 1430 1432 1434 1436 1437 1439 1441 1444 1446 1447 1449 1452 1453 1455 1456 1457 1458 1460 1462 1464 1466 1468 1469 1469 1468 1465 1464 1464 1466 1467 1465 1462 1457 1453
1405 1409 1412 1415 1416 1417 1420 1421 1423 1425 1428 1430 1432 1433 1435 1434 1435 1436 1439 1441 1443 1444 1445 1446 1447 1448 1450 1451 1452 1453 1453 1455 1454 1454 1451 1449 1450 1448 1449 1448 1447 1444 1442
1407 1416 1414 1412 1413 1415 1417 1418 1420 1421 1423 1424 1425 1426 1427 1427 1428 1430 1432 1433 1433 1435 1438 1439 1437 1438 1438 1438 1438 1437 1438 1439 1436 1438 1435 1434 1433 1433 1434 1435 1433 1432 1429
1416 1417 1415 1413 1413 1415 1416 1416 1417 1418 1418 1419 1420 1421 1421 1421 1420 1421 1424 1425 1427 1429 1429 1428 1428 1427 1428 1428 1430 1429 1428 1429 1428 1426 1426 1424 1422 1422 1421 1420 1418 1419 1419
1419 1419 1416 1414 1413 1414 1415 1415 1416 1416 1416 1416 1416 1417 1416 1416 1415 1415 1416 1418 1420 1420 1420 1420 1418 1417 1417 1418 1418 1419 1417 1416 1414 1415 1416 1411 1412 1410 1413 1410 1411 1410 1406
1422 1419 1416 1414 1414 1415 1416 1415 1415 1415 1415 1415 1414 1415 1415 1414 1413 1412 1411 1413 1413 1414 1413 1412 1411 1411 1411 1410 1409 1409 1406 1410 1407 1405 1408 1407 1410 1408 1411 1409 1410 1409 1411
1422 1420 1419 1418 1417 1418 1418 1417 1416 1415 1416 1415 1413 1414 1416 1414 1413 1411 1411 1411 1411 1410 1411 1411 1411 1411 1410 1409 1408 1408 1409 1408 1407 1409 1410 1411 1414 1414 1414 1413 1413 1412 1413
1424 1423 1421 1421 1420 1422 1419 1417 1416 1416 1415 1414 1416 1417 1417 1415 1414 1412 1412 1411 1411 1411 1412 1412 1412 1412 1411 1412 1412 1412 1412 1412 1414 1415 1415 1416 1415 1415 1416 1416 1416 1414 1415
1424 1422 1421 1422 1421 1421 1421 1419 1418 1417 1418 1419 1420 1419 1417 1417 1417 1417 1416 1415 1415 1414 1415 1415 1414 1415 1415 1415 1416 1417 1418 1419 1420 1420 1420 1420 1419 1419 1418 1417 1416 1415 1414
1423 1422 1422 1424 1423 1422 1422 1422 1422 1423 1423 1423 1421 1420 1421 1422 1422 1421 1421 1419 1418 1419 1419 1418 1418 1419 1419 1420 1420 1422 1423 1423 1423 1424 1424 1423 1422 1420 1418 1417 1416 1415 1414
1426 1426 1425 1425 1425 1424 1425 1427 1428 1428 1426 1423 1425 1427 1426 1427 1425 1425 1426 1424 1423 1424 1422 1422 1422 1422 1422 1423 1424 1424 1424 1425 1426 1426 1425 1425 1424 1423 1422 1420 1418 1416 1415
1428 1428 1428 1428 1428 1430 1431 1431 1430 1430 1430 1429 1431 1431 1430 1429 1429 1429 1429 1429 1427 1427 1427 1426 1426 1426 1426 1425 1424 1424 1425 1425 1425 1426 1426 1426 1425 1425 1424 1422 1421 1420 1419
1431 1431 1431 1432 1434 1435 1434 1434 1434 1434 1433 1433 1433 1434 1433 1433 1433 1433 1432 1431 1429 1428 1428 1428 1428 1427 1427 1427 1425 1424 1425 1426 1426 1427 1426 1426 1426 1426 1425 1424 1423 1421 1421
1436 1436 1435 1436 1436 1436 1436 1436 1436 1435 1434 1435 1436 1436 1437 1437 1436 1435 1434 1433 1432 1431 1430 1430 1430 1429 1429 1429 1428 1427 1426 1425 1427 1428 1428 1427 1427 1426 1426 1425 1424 1422 1421
1439 1438 1437 1437 1438 1438 1438 1438 1437 1438 1438 1439 1440 1439 1440 1440 1438 1436 1436 1435 1434 1433 1432 1432 1432 1431 1431 1430 1430 1428 1427 1427 1428 1428 1429 1428 1427 1426 1426 1425 1424 1422 1420
1439 1439 1439 1439 1440 1441 1441 1441 1441 1441 1441 1441 1441 1441 1441 1440 1439 1438 1437 1436 1436 1435 1434 1434 1433 1433 1432 1432 1432 1430 1429 1428 1428 1428 1428 1428 1427 1426 1425 1424 1423 1421 1420
1442 1442 1442 1442 1442 1443 1443 1443 1442 1442 1442 1442 1442 1442 1441 1440 1439 1439 1438 1437 1437 1436 1435 1434 1435 1434 1432 1432 1431 1430 1429 1428 1428 1427 1427 1427 1426 1425 1424 1423 1423 1421 1420
1444 1443 1443 1443 1443 1443 1444 1443 1443 1442 1442 1442 1442 1442 1441 1440 1439 1439 1439 1438 1437 1437 1436 1435 1434 1433 1432 1431 1430 1429 1428 1428 1427 1426 1426 1425 1425 1424 1423 1422 1422 1421 1419
1444 1444 1444 1444 1444 1444 1444 1443 1443 1443 1443 1442 1442 1442 1442 1440 1439 1439 1439 1438 1437 1437 1436 1435 1434 1433 1431 1430 1429 1428 1427 1427 1426 1425 1424 1424 1423 1422 1422 1421 1421 1420 1418
1445 1445 1445 1445 1445 1445 1444 1444 1444 1443 1444 1442 1442 1442 1441 1440 1440 1439 1438 1437 1436 1436 1435 1433 1432 1431 1429 1428 1427 1426 1425 1425 1424 1423 1422 1421 1421 1420 1420 1420 1419 1418 1417
Wind_Speed
32 28 26 21 17 17 16 15 16 14 15 14 10 7 10 16 15 19 22 27 35 42 37 43 46 45 40 41 42 39 37 40 40 36 32 36 35 35 33 38 40 42 38
29 24 22 19 16 16 16 17 16 16 15 12 12 12 13 13 14 17 22 25 30 37 43 47 46 46 44 44 42 43 44 45 42 42 38 35 41 42 39 41 38 39 40
24 19 16 16 15 15 15 16 17 17 17 16 15 16 18 18 18 17 18 24 26 28 35 39 42 42 49 48 43 38 41 41 43 42 44 41 44 45 47 46 43 44 46
17 14 10 8 8 14 15 15 15 15 17 18 18 18 19 20 22 23 24 24 28 32 35 35 37 43 47 46 44 48 44 42 41 43 46 47 45 47 43 45 43 51 53
10 8 7 6 5 7 15 15 14 15 16 17 18 18 19 21 23 24 27 29 31 31 33 34 35 38 41 45 44 51 50 47 49 47 43 41 44 41 41 46 46 54 56
7 6 3 5 6 6 7 14 16 15 14 15 17 17 19 21 22 22 24 28 32 36 40 40 38 38 40 40 41 42 47 52 52 50 46 44 51 50 49 47 50 47 47
10 10 7 6 9 10 8 7 10 13 16 18 18 19 18 17 16 17 21 26 29 32 34 34 36 38 40 42 44 45 47 50 53 56 54 53 53 54 53 48 50 52 54
12 6 8 8 8 10 12 15 16 17 17 15 16 16 17 24 20 20 18 20 25 28 30 33 36 38 39 40 42 46 47 48 51 53 57 61 57 53 51 52 54 54 51
10 4 6 6 5 5 8 11 14 18 19 20 21 21 23 27 28 26 21 23 25 22 22 28 36 38 42 43 44 45 46 45 49 49 49 51 53 55 55 55 59 49 47
14 11 10 9 7 4 4 2 3 5 8 11 14 16 19 22 25 24 23 21 24 29 32 33 36 39 41 42 42 43 45 41 42 44 44 44 44 46 47 43 43 47 44
14 11 12 13 12 10 8 6 6 4 2 3 3 5 7 11 15 21 25 25 23 22 24 29 33 38 38 37 36 37 40 43 39 38 36 33 33 29 23 20 19 21 19
11 11 11 12 13 12 10 10 9 7 6 4 2 2 3 5 7 8 10 11 10 12 12 13 14 17 19 18 19 18 17 23 21 20 18 11 7 2 4 7 8 7 6
11 11 11 11 12 11 9 10 11 10 9 8 6 5 4 5 6 7 5 5 3 1 1 2 7 9 9 6 7 5 1 2 5 8 8 10 10 11 10 10 11 12 11
9 10 10 11 12 10 9 10 10 11 11 10 8 7 9 9 10 10 9 9 10 9 9 8 9 11 12 14 12 13 14 14 13 13 13 13 11 9 8 8 7 6 6
8 9 10 10 12 13 11 13 14 13 11 10 11 10 11 13 15 14 13 13 13 13 12 14 16 17 19 20 20 20 19 17 16 16 14 12 9 7 7 7 7 9 9
7 8 9 8 9 11 12 13 15 12 13 15 16 15 17 17 14 13 13 13 13 13 13 17 20 20 21 20 19 17 16 15 14 10 8 7 7 7 7 7 8 8 9
7 6 6 6 7 8 9 9 11 13 14 17 18 17 15 14 13 13 12 12 14 11 15 19 20 19 18 17 14 12 11 10 9 8 8 8 9 8 8 8 9 9 10
8 7 6 6 7 7 8 9 10 10 11 14 14 14 14 13 13 14 13 11 13 12 14 15 14 12 11 10 10 10 10 9 8 8 8 8 8 8 8 8 9 9 9
9 9 8 8 7 7 8 8 9 9 10 11 11 11 11 11 9 9 8 7 10 11 11 9 9 9 9 9 10 10 9 9 9 8 8 8 8 8 8 8 9 9 9
10 10 8 8 8 8 8 8 8 8 8 8 8 9 9 7 7 7 6 6 7 8 8 8 8 8 8 8 8 8 8 8 7 7 7 7 6 7 6 7 7 8 9
8 7 7 6 6 6 6 6 6 6 6 6 7 7 6 2 3 4 5 6 7 7 8 8 7 7 7 6 6 6 6 6 6 5 6 5 5 6 6 6 7 8 9
6 5 4 4 4 4 4 5 5 5 5 4 4 4 4 2 4 5 6 6 7 6 6 6 5 5 5 5 5 5 5 5 4 4 4 4 4 4 5 6 7 8 8
4 4 3 3 3 2 2 2 3 3 3 3 4 4 4 4 5 5 6 6 6 5 5 5 4 4 5 5 5 5 5 5 5 4 4 3 3 4 4 5 6 7 7
2 1 1 0 1 1 1 1 2 3 4 4 4 4 4 5 5 4 4 5 5 5 5 4 4 5 5 5 5 5 5 5 5 5 4 4 3 3 3 4 5 6 7
3 2 1 1 1 2 2 3 3 3 3 3 3 3 3 3 3 2 3 3 4 4 4 4 5 5 6 6 6 6 6 6 6 6 5 4 4 3 3 4 5 6 7
4 3 2 2 2 2 2 2 2 2 1 1 1 1 2 2 2 2 2 3 4 5 5 6 7 7 8 9 9 9 9 8 8 8 6 6 5 5 5 5 6 6 7
Wind_Direction
204 202 204 205 213 217 214 209 210 204 199 204 205 204 195 198 212 224 228 235 228 225 216 213 219 223 223 234 245 242 241 241 252 257 254 268 263 263 264 258 265 263 269
198 197 200 205 210 215 213 209 205 210 206 203 202 205 212 219 222 226 231 222 220 220 223 219 222 227 238 244 244 247 254 247 253 258 259 263 268 267 267 273 274 264 272
192 194 194 202 210 214 211 210 208 207 211 211 212 218 224 224 230 234 236 234 232 229 225 226 235 240 241 242 248 250 249 253 254 256 263 267 272 275 273 275 271 268 273
181 188 184 190 201 213 211 212 213 213 217 222 224 227 228 232 236 240 237 236 233 235 237 246 252 249 243 247 247 246 247 253 260 264 265 268 270 271 272 271 271 275 275
184 182 193 223 213 198 207 212 218 221 225 230 232 233 234 236 238 237 238 240 241 240 244 255 258 253 254 250 258 251 251 257 260 264 265 267 268 265 263 271 271 279 281
148 137 180 234 247 238 220 213 221 226 229 231 234 239 243 245 246 246 245 245 246 248 254 260 261 257 253 254 257 257 255 260 263 264 263 261 267 270 272 269 272 270 271
150 158 179 211 222 245 247 250 235 236 239 241 241 242 245 253 259 253 250 252 254 256 259 261 261 259 258 258 259 259 259 258 260 264 262 261 263 267 269 269 266 265 267
94 117 173 188 206 225 236 239 243 246 253 256 260 258 258 260 248 242 242 255 260 263 265 268 268 268 268 266 265 265 265 265 265 266 266 266 260 256 254 258 260 262 262
90 93 113 116 131 179 212 223 232 236 242 250 253 257 257 257 258 260 254 256 253 258 269 273 271 272 271 269 267 270 273 274 275 276 273 274 271 270 269 266 259 260 261
84 75 84 97 108 126 135 150 205 225 228 236 241 238 237 240 251 263 269 267 261 259 263 266 268 269 272 273 274 274 272 269 268 270 272 273 272 272 273 268 269 269 271
45 57 69 74 77 73 72 81 83 102 150 184 216 231 245 257 268 269 271 272 272 264 258 259 264 269 271 272 272 270 268 271 266 266 257 260 265 273 279 284 280 276 263
43 46 53 57 57 62 66 73 78 79 77 84 72 4 350 332 327 317 310 298 279 270 258 255 267 285 297 305 300 296 281 261 245 237 231 222 220 189 71 65 62 69 89
45 53 56 59 56 52 60 69 70 70 65 64 66 56 35 23 17 18 22 51 61 16 132 15 352 355 360 6 35 20 12 195 185 168 132 113 92 82 75 69 69 69 73
47 50 61 59 55 44 51 58 54 52 46 46 51 57 59 56 50 49 51 53 61 66 77 81 76 75 71 79 92 91 92 100 106 105 104 100 93 90 85 78 66 61 43
48 51 50 52 57 55 59 60 52 50 53 58 65 67 64 64 64 68 73 80 82 84 95 99 97 96 94 92 91 91 93 93 92 90 90 91 87 76 65 57 50 49 57
36 42 45 47 53 55 57 61 65 74 80 79 74 68 75 75 74 72 74 80 88 98 104 99 95 93 91 90 89 88 88 85 82 78 74 73 72 73 74 75 74 72 69
46 47 43 45 52 61 66 73 79 79 81 87 84 80 76 74 72 73 75 85 95 108 97 95 93 90 88 85 82 76 70 64 61 63 64 68 70 68 65 66 65 63 64
53 61 67 77 87 91 90 90 89 90 90 86 86 90 86 85 87 93 96 99 104 92 87 87 85 81 77 73 72 71 71 73 73 73 72 73 73 67 66 66 62 60 56
62 71 80 94 102 103 103 104 103 100 96 93 89 82 80 86 90 99 109 104 92 91 87 84 81 78 77 77 80 80 76 71 68 66 68 66 64 63 60 59 57 54 51
72 75 84 97 103 107 109 111 107 101 100 101 104 100 96 102 126 118 106 91 90 90 89 86 85 84 84 81 78 75 72 70 64 60 60 61 64 64 60 57 56 53 46
64 75 82 96 105 107 109 109 109 112 114 117 117 110 107 120 107 93 88 91 90 90 89 85 84 84 81 74 69 67 61 55 55 52 48 49 53 54 53 51 47 42 35
52 60 76 96 105 111 116 117 116 115 112 108 103 107 99 98 94 91 88 85 82 78 76 75 69 64 61 56 45 43 40 44 44 41 38 38 42 45 50 46 36 28 22
46 57 78 98 99 89 96 103 98 92 94 102 105 107 111 105 101 97 92 85 79 71 67 63 53 43 37 29 24 21 21 22 19 16 17 20 30 35 35 29 17 10 6
32 35 42 57 83 69 77 78 90 102 108 106 104 104 101 97 92 88 82 72 62 55 49 39 30 20 14 8 5 3 2 356 357 358 356 355 357 3 8 3 356 354 353
49 54 63 82 93 96 93 102 106 105 104 102 96 95 90 84 78 71 58 48 42 36 25 16 8 2 358 354 351 349 348 344 338 337 331 329 325 322 322 324 330 336 344
51 61 72 84 92 98 102 103 111 107 95 71 52 47 41 34 15 6 9 10 7 1 357 355 352 348 344 341 339 336 332 329 326 323 317 309 304 299 297 301 312 326 333